Location: Grieser Field
(39.7333°N, 81.7975°W)
Time: 23:21:42
(UTC-04:00)

Hubble Space Telescope - Visible Passes

Search period start: 17 April 2015 00:00
Search period end: 27 April 2015 00:00
Orbit: 543 x 546 km, 28.5° (Epoch: 17 April)

Date Brightness Start Highest point End Pass type
(mag) Time Alt. Az. Time Alt. Az. Time Alt. Az.
17 Apr 2.8 05:23:14 13° S 05:24:12 14° S 05:26:29 10° SE visible
18 Apr 2.7 05:15:08 15° S 05:15:35 16° S 05:18:08 10° SE visible
19 Apr 2.7 05:07:01 17° S 05:07:01 17° S 05:09:40 10° SE visible
20 Apr 2.7 04:58:57 17° SSE 04:58:57 17° SSE 05:01:08 10° SE visible
21 Apr 2.8 04:50:54 16° SSE 04:50:54 16° SSE 04:52:31 10° SE visible
22 Apr 3.1 04:42:56 13° SSE 04:42:56 13° SSE 04:43:51 10° SE visible
23 Apr 3.3 04:35:03 10° SSE 04:35:03 10° SSE 04:35:06 10° SSE visible
